Location: �clusier
(49.9361°N, 2.7869°E)
Time: 04:32:50
(UTC+00:00)

Cosmos 1943 Rocket - Pass Details

Date: 04 November 2021
Orbit: 811 x 844 km, 71.0° (Epoch: 07 December)

Event Time Altitude Azimuth Distance (km) Brightness Sun altitude
Rises 18:37:06 0° 332° (NNW) 3,414 5.8 -22.2°
Reaches altitude 10° 18:39:38 10° 337° (NNW) 2,473 4.9 -22.6°
Maximum altitude 18:45:13 56° 55° (NE) 1,001 2.2 -23.5°
Enters shadow 18:45:32 55° 69° (ENE) 1,009 2.2 -23.6°
